Weather History for Waycross, GA

Change the Weather History Date:

Friday, April 12, 2013

  Actual Average (KAMG) Record (KAMG)
Temperature  
Mean Temperature 74 °F 65 °F  
Max Temperature 84 °F 78 °F 89 °F (1965)
Min Temperature 64 °F 53 °F 36 °F (1989)
Degree Days  
Heating Degree Days 0 2  
Month to date heating degree days 36  
Since 1 July heating degree days 1625  
Cooling Degree Days 9 3  
Month to date cooling degree days 29  
Year to date cooling degree days 83  
Growing Degree Days 24 (Base 50)    
Moisture  
Dew Point 68 °F    
Average Humidity 79    
Maximum Humidity 100    
Minimum Humidity 58    
Precipitation  
Precipitation 0.00 in 0.11 in 1.58 in (1953)
Month to date precipitation 1.31  
Year to date precipitation 14.12  
Snow  
Snow 0.00 in 0.00 in 0.00 in ()
Month to date snowfall 0.0  
Since 1 July snowfall 0.1  
Snow Depth -    
Sea Level Pressure  
Sea Level Pressure 29.80 in    
Wind  
Wind Speed 10 mph (SW)    
Max Wind Speed 25 mph    
Max Gust Speed 33 mph    
Visibility 10 miles    
Events      
T = Trace of Precipitation, MM = Missing Value Source: NWS Daily Summary

Daily Weather History Graph

Daily Weather History Graph

Search for Another Location

Airport:

Trip Planner

Search our weather history database for the weather conditions in past years. The results will help you decide how hot, cold, wet, or windy it might be!

Date:

Astronomy

Apr. 12, 2013 Rise Set
Actual Time 7:04 AM EDT 7:56 PM EDT
Civil Twilight 6:39 AM EDT 8:21 PM EDT
Nautical Twilight 6:10 AM EDT 8:50 PM EDT
Astronomical Twilight 5:40 AM EDT 9:20 PM EDT
Moon 8:21 AM EDT (4/12) 10:16 PM EDT (4/12)
Length of Visible Light 13h 41m
Length of Day
12h 51m
Waxing Crescent, 5% of the Moon is Illuminated
Apr 12
Waxing Crescent
Apr 18
First Quarter
Apr 25
Full
May 2
Last Quarter
May 9
New

Hourly Weather History & Observations

Time (EDT) Temp. Heat Index Dew Point Humidity Pressure Visibility Wind Dir Wind Speed Gust Speed Precip Events Conditions
12:15 AM 73.4 °F - 69.8 °F 88% 29.84 in 10.0 mi South 6.9 mph - N/A   Overcast
12:35 AM 73.4 °F - 69.8 °F 88% 29.85 in 10.0 mi SSW 8.1 mph - N/A   Mostly Cloudy
12:55 AM 73.4 °F - 69.8 °F 88% 29.85 in 10.0 mi South 6.9 mph - N/A   Scattered Clouds
1:15 AM 73.4 °F - 69.8 °F 88% 29.85 in 10.0 mi SSW 8.1 mph - N/A   Clear
1:35 AM 73.4 °F - 69.8 °F 88% 29.85 in 10.0 mi SSW 8.1 mph - N/A   Scattered Clouds
1:55 AM 73.4 °F - 69.8 °F 88% 29.85 in 10.0 mi SW 10.4 mph - N/A   Scattered Clouds
2:15 AM 73.4 °F - 69.8 °F 88% 29.86 in 3.0 mi SW 12.7 mph 16.1 mph N/A   Mostly Cloudy
2:35 AM 71.6 °F - 69.8 °F 94% 29.81 in 10.0 mi South 6.9 mph - N/A   Mostly Cloudy
2:55 AM 71.6 °F - 69.8 °F 94% 29.80 in 10.0 mi South 9.2 mph - N/A   Scattered Clouds
3:15 AM 71.6 °F - 69.8 °F 94% 29.76 in 10.0 mi South 6.9 mph - N/A   Scattered Clouds
3:35 AM 69.8 °F - 69.8 °F 100% 29.76 in 7.0 mi South 6.9 mph - N/A   Scattered Clouds
3:55 AM 71.6 °F - 69.8 °F 94% 29.75 in 10.0 mi SSW 12.7 mph - N/A   Scattered Clouds
4:15 AM 71.6 °F - 69.8 °F 94% 29.74 in 10.0 mi SSW 11.5 mph 19.6 mph N/A   Clear
4:35 AM 71.6 °F - 69.8 °F 94% 29.75 in 10.0 mi SSW 12.7 mph - N/A   Clear
4:55 AM 71.6 °F - 69.8 °F 94% 29.75 in 10.0 mi SSW 10.4 mph 17.3 mph N/A   Clear
5:15 AM 71.6 °F - 69.8 °F 94% 29.75 in 10.0 mi SSW 11.5 mph 17.3 mph N/A   Clear
5:35 AM 71.6 °F - 69.8 °F 94% 29.75 in 10.0 mi SSW 10.4 mph 16.1 mph N/A   Clear
5:55 AM 71.6 °F - 69.8 °F 94% 29.75 in 10.0 mi SW 9.2 mph - N/A   Scattered Clouds
6:15 AM 71.6 °F - 69.8 °F 94% 29.75 in 10.0 mi SSW 6.9 mph - N/A   Overcast
6:35 AM 71.6 °F - 69.8 °F 94% 29.75 in 10.0 mi SW 5.8 mph - N/A   Overcast
6:55 AM 71.6 °F - 69.8 °F 94% 29.76 in 10.0 mi SW 5.8 mph - N/A   Overcast
7:15 AM 71.6 °F - 69.8 °F 94% 29.77 in 10.0 mi SW 6.9 mph - N/A   Overcast
7:35 AM 73.4 °F - 69.8 °F 88% 29.77 in 10.0 mi SSW 6.9 mph - N/A   Overcast
7:55 AM 73.4 °F - 69.8 °F 88% 29.77 in 10.0 mi SSW 6.9 mph - N/A   Overcast
8:15 AM 73.4 °F - 71.6 °F 94% 29.77 in 10.0 mi South 6.9 mph - N/A   Overcast
8:35 AM 73.4 °F - 71.6 °F 94% 29.79 in 10.0 mi SSW 9.2 mph - N/A   Overcast
8:55 AM 75.2 °F - 71.6 °F 89% 29.79 in 10.0 mi SW 6.9 mph - N/A   Overcast
9:15 AM 75.2 °F - 71.6 °F 89% 29.78 in 10.0 mi SW 6.9 mph - N/A   Overcast
9:35 AM 75.2 °F - 71.6 °F 89% 29.78 in 10.0 mi SW 8.1 mph - N/A   Overcast
9:55 AM 77.0 °F - 71.6 °F 83% 29.78 in 10.0 mi SW 10.4 mph 17.3 mph N/A   Overcast
10:15 AM 78.8 °F - 71.6 °F 78% 29.79 in 10.0 mi SW 10.4 mph 25.3 mph N/A   Mostly Cloudy
10:35 AM 80.6 °F 84.6 °F 71.6 °F 74% 29.80 in 10.0 mi SW 16.1 mph 20.7 mph N/A   Mostly Cloudy
10:55 AM 80.6 °F 83.9 °F 69.8 °F 70% 29.80 in 10.0 mi SW 16.1 mph 23.0 mph N/A   Mostly Cloudy
11:15 AM 80.6 °F 83.9 °F 69.8 °F 70% 29.80 in 10.0 mi WSW 15.0 mph 24.2 mph N/A   Mostly Cloudy
11:35 AM 82.4 °F 86.3 °F 69.8 °F 66% 29.79 in 10.0 mi WSW 25.3 mph 33.4 mph N/A   Scattered Clouds
11:55 AM 84.2 °F 87.3 °F 68.0 °F 58% 29.80 in 10.0 mi SW 21.9 mph 27.6 mph N/A   Scattered Clouds
12:15 PM 84.2 °F 88.4 °F 69.8 °F 62% 29.80 in 10.0 mi SW 21.9 mph 32.2 mph N/A   Mostly Cloudy
12:35 PM 84.2 °F 88.4 °F 69.8 °F 62% 29.80 in 10.0 mi WSW 16.1 mph 27.6 mph N/A   Mostly Cloudy
12:55 PM 80.6 °F 84.6 °F 71.6 °F 74% 29.81 in 10.0 mi West 15.0 mph 21.9 mph N/A   Scattered Clouds
1:15 PM 80.6 °F 84.6 °F 71.6 °F 74% 29.80 in 10.0 mi WSW 20.7 mph 27.6 mph N/A   Scattered Clouds
1:35 PM 82.4 °F 87.2 °F 71.6 °F 70% 29.79 in 10.0 mi WSW 18.4 mph 26.5 mph N/A   Mostly Cloudy
1:55 PM 84.2 °F 89.6 °F 71.6 °F 66% 29.79 in 10.0 mi West 16.1 mph 25.3 mph N/A   Scattered Clouds
2:15 PM 82.4 °F 87.2 °F 71.6 °F 70% 29.78 in 10.0 mi West 18.4 mph 24.2 mph N/A   Scattered Clouds
2:35 PM 84.2 °F 88.4 °F 69.8 °F 62% 29.79 in 10.0 mi WSW 20.7 mph 28.8 mph N/A   Scattered Clouds
2:55 PM 84.2 °F 88.4 °F 69.8 °F 62% 29.78 in 10.0 mi WSW 17.3 mph 26.5 mph N/A   Scattered Clouds
3:15 PM 84.2 °F 88.4 °F 69.8 °F 62% 29.77 in 10.0 mi SW 21.9 mph 28.8 mph N/A   Scattered Clouds
3:35 PM 82.4 °F 86.3 °F 69.8 °F 66% 29.77 in 10.0 mi WSW 23.0 mph 29.9 mph N/A   Mostly Cloudy
3:55 PM 82.4 °F 86.3 °F 69.8 °F 66% 29.77 in 10.0 mi SW 13.8 mph 28.8 mph N/A   Mostly Cloudy
4:15 PM 82.4 °F 86.3 °F 69.8 °F 66% 29.77 in 10.0 mi WSW 18.4 mph 23.0 mph N/A   Scattered Clouds
4:35 PM 80.6 °F 83.9 °F 69.8 °F 70% 29.77 in 10.0 mi West 10.4 mph 15.0 mph N/A   Mostly Cloudy
4:55 PM 80.6 °F 83.9 °F 69.8 °F 70% 29.77 in 10.0 mi NW 10.4 mph - N/A   Mostly Cloudy
5:15 PM 80.6 °F 82.7 °F 66.2 °F 61% 29.78 in 10.0 mi West 16.1 mph - N/A   Scattered Clouds
5:35 PM 78.8 °F - 66.2 °F 65% 29.79 in 10.0 mi West 11.5 mph 17.3 mph N/A   Mostly Cloudy
5:55 PM 78.8 °F - 66.2 °F 65% 29.79 in 10.0 mi West 12.7 mph - N/A   Scattered Clouds
6:15 PM 78.8 °F - 64.4 °F 61% 29.80 in 10.0 mi WNW 10.4 mph - N/A   Mostly Cloudy
6:35 PM 77.0 °F - 64.4 °F 65% 29.81 in 10.0 mi West 10.4 mph - N/A   Mostly Cloudy
6:55 PM 77.0 °F - 64.4 °F 65% 29.81 in 10.0 mi West 6.9 mph - N/A   Mostly Cloudy
7:15 PM 75.2 °F - 64.4 °F 69% 29.81 in 10.0 mi West 5.8 mph - N/A   Mostly Cloudy
7:35 PM 75.2 °F - 64.4 °F 69% 29.81 in 10.0 mi WSW 5.8 mph - N/A   Scattered Clouds
7:55 PM 73.4 °F - 64.4 °F 73% 29.82 in 10.0 mi WSW 4.6 mph - N/A   Clear
8:15 PM 73.4 °F - 64.4 °F 73% 29.82 in 10.0 mi WSW 3.5 mph - N/A   Scattered Clouds
8:35 PM 73.4 °F - 64.4 °F 73% 29.83 in 10.0 mi Calm Calm - N/A   Scattered Clouds
8:55 PM 71.6 °F - 62.6 °F 73% 29.83 in 10.0 mi WNW 4.6 mph - N/A   Clear
9:15 PM 71.6 °F - 60.8 °F 69% 29.83 in 10.0 mi WNW 3.5 mph - N/A   Clear
9:35 PM 71.6 °F - 60.8 °F 69% 29.84 in 10.0 mi Calm Calm - N/A   Clear
9:55 PM 69.8 °F - 60.8 °F 73% 29.86 in 10.0 mi Calm Calm - N/A   Clear
10:15 PM 66.2 °F - 62.6 °F 88% 29.88 in 10.0 mi SSW 4.6 mph - N/A   Clear
10:35 PM 66.2 °F - 62.6 °F 88% 29.88 in 10.0 mi Calm Calm - N/A   Clear
10:55 PM 66.2 °F - 60.8 °F 83% 29.88 in 10.0 mi Calm Calm - N/A   Clear
11:15 PM 64.4 °F - 60.8 °F 88% 29.89 in 10.0 mi Calm Calm - N/A   Clear
11:35 PM 66.2 °F - 57.2 °F 73% 29.89 in 10.0 mi WNW 5.8 mph - N/A   Clear
11:55 PM 66.2 °F - 57.2 °F 73% 29.89 in 10.0 mi NW 4.6 mph - N/A   Scattered Clouds